Location: Cussy
(47.0410°N, 4.6412°E)
Time: 16:33:11
(UTC+00:00)

X-37B - Pass Details

Date: 30 November 2020
Orbit: 383 x 391 km, 45.0° (Epoch: 27 January)

Event Time Altitude Azimuth Distance (km) Brightness Sun altitude
Rises 16:41:09 0° 222° (SW) 2,255 5.8 -7.9°
Reaches altitude 10° 16:43:30 10° 206° (SSW) 1,406 4.2 -8.2°
Maximum altitude 16:45:59 21° 154° (SSE) 921 2.4 -8.6°
Drops below altitude 10° 16:48:29 10° 102° (ESE) 1,414 2.9 -9.0°
Enters shadow 16:48:39 - 100° (E) 1,467 3.0 -9.0°
